This is the latest recevied weather packets stored in our database for station/object KQ4NAL. If no packets are shown the sender has not sent any weather packets the latest 10 day(s).
| Time | Temp. | Humidity | Pressure | Rain* | Wind** | Luminosity | Snow |
|---|---|---|---|---|---|---|---|
| 1777769438 | 6.67° C | 63% | 1018.7 hPa | 0 mm | - | 0 W/m² | - |
| 1777769134 | 7.22° C | 61% | 1018.9 hPa | 0 mm | - | 0 W/m² | - |
| 1777768833 | 7.78° C | 58% | 1018.7 hPa | 0 mm | - | 0 W/m² | - |
| 1777768528 | 8.33° C | 56% | 1018.7 hPa | 0 mm | - | 0 W/m² | - |
| 1777768226 | 8.33° C | 54% | 1018.5 hPa | 0 mm | - | 2 W/m² | - |
| 1777767923 | 8.89° C | 52% | 1018.4 hPa | 0 mm | - | 5 W/m² | - |
| 1777767620 | 8.89° C | 52% | 1018.4 hPa | 0 mm | - | 7 W/m² | - |
| 1777767316 | 9.44° C | 50% | 1018.2 hPa | 0 mm | - | 10 W/m² | - |
| 1777767014 | 10° C | 50% | 1018.4 hPa | 0 mm | - | 13 W/m² | - |
| 1777766711 | 10° C | 49% | 1018.2 hPa | 0 mm | - | 18 W/m² | - |
| 1777766407 | 10° C | 49% | 1018.4 hPa | 0 mm | - | 24 W/m² | - |
| 1777766103 | 10.56° C | 47% | 1018.2 hPa | 0 mm | - | 30 W/m² | - |
| 1777765801 | 10.56° C | 47% | 1018.2 hPa | 0 mm | - | 36 W/m² | - |
| 1777765497 | 10.56° C | 47% | 1018.1 hPa | 0 mm | - | 44 W/m² | - |
| 1777765195 | 10.56° C | 47% | 1018.1 hPa | 0 mm | - | 44 W/m² | - |
| 1777764890 | 10.56° C | 46% | 1018 hPa | 0 mm | - | 46 W/m² | - |
| 1777764587 | 10.56° C | 45% | 1018.1 hPa | 0 mm | - | 46 W/m² | - |
| 1777764283 | 10.56° C | 46% | 1018 hPa | 0 mm | - | 72 W/m² | - |
| 1777763980 | 11.11° C | 45% | 1018.2 hPa | 0 mm | - | 98 W/m² | - |
| 1777763677 | 11.11° C | 45% | 1018.2 hPa | 0 mm | - | 89 W/m² | - |
| 1777763376 | 11.67° C | 44% | 1018.1 hPa | 0 mm | - | 79 W/m² | - |
| 1777763073 | 11.67° C | 46% | 1017.9 hPa | 0 mm | - | 171 W/m² | - |
| 1777762771 | 11.67° C | 45% | 1018 hPa | 0 mm | - | 78 W/m² | - |
| 1777762467 | 11.11° C | 45% | 1018.1 hPa | 0 mm | - | 131 W/m² | - |
| 1777762164 | 11.11° C | 45% | 1018.1 hPa | 0 mm | - | 83 W/m² | - |
* Rain latest hour (hover to see other rain measurements)
** Current wind speed in m/s (hover to see current wind gust speed)